Time,TemperatureF,DewpointF,PressureIn,WindDirection,WindDirectionDegrees,WindSpeedMPH,WindSpeedGustMPH,Humidity,HourlyPrecipIn,Conditions,Clouds,dailyrainin,SoftwareType,DateUTC
2013-05-15 00:09:00,34.5,34.0,29.76,ESE,112,0.0,-999.0,98,-99.99,,,0.00,Acu-Link.com,2013-05-15 04:09:00,
2013-05-15 00:24:00,34.5,34.0,29.76,East,90,0.0,-999.0,98,-99.99,,,0.00,Acu-Link.com,2013-05-15 04:24:00,
2013-05-15 00:40:00,34.3,33.8,29.75,ENE,67,0.0,-999.0,98,-99.99,,,0.00,Acu-Link.com,2013-05-15 04:40:00,
2013-05-15 00:55:00,34.0,33.5,29.75,West,270,0.0,-999.0,98,-99.99,,,0.00,Acu-Link.com,2013-05-15 04:55:00,
2013-05-15 01:10:00,33.4,32.9,29.75,ENE,67,0.0,-999.0,98,-99.99,,,0.00,Acu-Link.com,2013-05-15 05:10:00,
2013-05-15 01:26:00,33.3,32.8,29.75,ESE,112,0.0,-999.0,98,-99.99,,,0.00,Acu-Link.com,2013-05-15 05:26:00,
2013-05-15 01:41:00,33.3,32.8,29.75,ESE,112,0.0,-999.0,98,-99.99,,,0.00,Acu-Link.com,2013-05-15 05:41:00,
2013-05-15 01:56:00,32.9,32.4,29.75,East,90,0.0,-999.0,98,-99.99,,,0.00,Acu-Link.com,2013-05-15 05:56:00,
2013-05-15 02:12:00,32.7,32.2,29.75,ESE,112,0.0,-999.0,98,-99.99,,,0.00,Acu-Link.com,2013-05-15 06:12:00,
2013-05-15 02:27:00,32.7,32.2,29.76,ESE,112,0.0,-999.0,98,-99.99,,,0.00,Acu-Link.com,2013-05-15 06:27:00,
2013-05-15 02:42:00,33.1,32.6,29.76,NE,45,0.0,-999.0,98,-99.99,,,0.00,Acu-Link.com,2013-05-15 06:42:00,
2013-05-15 02:57:00,32.7,32.2,29.76,ESE,112,0.0,-999.0,98,-99.99,,,0.00,Acu-Link.com,2013-05-15 06:57:00,
2013-05-15 03:13:00,32.5,32.0,29.76,ESE,112,0.0,-999.0,98,-99.99,,,0.00,Acu-Link.com,2013-05-15 07:13:00,
2013-05-15 03:28:00,32.2,31.7,29.76,WNW,292,0.0,-999.0,98,-99.99,,,0.00,Acu-Link.com,2013-05-15 07:28:00,
2013-05-15 03:43:00,32.2,31.7,29.75,NNE,22,0.0,-999.0,98,-99.99,,,0.00,Acu-Link.com,2013-05-15 07:43:00,
2013-05-15 03:59:00,32.2,31.7,29.75,NNE,22,0.0,-999.0,98,-99.99,,,0.00,Acu-Link.com,2013-05-15 07:59:00,
2013-05-15 04:14:00,32.0,31.5,29.75,NNE,22,0.0,-999.0,98,-99.99,,,0.00,Acu-Link.com,2013-05-15 08:14:00,
2013-05-15 04:29:00,31.8,31.3,29.75,NNE,22,0.0,-999.0,98,-99.99,,,0.00,Acu-Link.com,2013-05-15 08:29:00,
2013-05-15 04:44:00,31.6,31.1,29.75,NNE,22,0.0,-999.0,98,-99.99,,,0.00,Acu-Link.com,2013-05-15 08:44:00,
2013-05-15 04:59:00,31.8,31.3,29.75,NNE,22,0.0,-999.0,98,-99.99,,,0.00,Acu-Link.com,2013-05-15 08:59:00,
2013-05-15 05:14:00,31.6,31.1,29.74,NNE,22,0.0,-999.0,98,-99.99,,,0.00,Acu-Link.com,2013-05-15 09:14:00,
2013-05-15 05:29:00,31.5,31.0,29.74,NNE,22,0.0,-999.0,98,-99.99,,,0.00,Acu-Link.com,2013-05-15 09:29:00,
2013-05-15 05:44:00,32.4,31.9,29.74,NNE,22,0.0,-999.0,98,-99.99,,,0.00,Acu-Link.com,2013-05-15 09:44:00,
2013-05-15 06:00:00,32.4,31.9,29.74,NNE,22,0.0,-999.0,98,-99.99,,,0.00,Acu-Link.com,2013-05-15 10:00:00,
2013-05-15 06:15:00,32.7,32.2,29.74,NNE,22,0.0,-999.0,98,-99.99,,,0.00,Acu-Link.com,2013-05-15 10:15:00,
2013-05-15 06:30:00,33.6,33.1,29.73,NE,45,0.0,-999.0,98,-99.99,,,0.00,Acu-Link.com,2013-05-15 10:30:00,
2013-05-15 06:45:00,34.9,34.4,29.74,East,90,0.0,-999.0,98,-99.99,,,0.00,Acu-Link.com,2013-05-15 10:45:00,
2013-05-15 07:01:00,37.8,37.3,29.74,East,90,0.0,-999.0,98,-99.99,,,0.00,Acu-Link.com,2013-05-15 11:01:00,
2013-05-15 07:16:00,44.1,41.6,29.74,WNW,292,0.0,-999.0,91,-99.99,,,0.00,Acu-Link.com,2013-05-15 11:16:00,
2013-05-15 07:31:00,49.6,42.7,29.74,East,90,0.0,-999.0,77,-99.99,,,0.00,Acu-Link.com,2013-05-15 11:31:00,
2013-05-15 07:47:00,54.9,40.4,29.73,NNE,22,2.2,-999.0,58,-99.99,,,0.00,Acu-Link.com,2013-05-15 11:47:00,
2013-05-15 08:02:00,57.2,40.2,29.73,ENE,67,0.0,-999.0,53,-99.99,,,0.00,Acu-Link.com,2013-05-15 12:02:00,
2013-05-15 08:32:00,58.6,42.5,29.72,East,90,1.7,-999.0,55,-99.99,,,0.00,Acu-Link.com,2013-05-15 12:32:00,
2013-05-15 08:48:00,57.4,41.8,29.71,ENE,67,2.2,-999.0,56,-99.99,,,0.00,Acu-Link.com,2013-05-15 12:48:00,
2013-05-15 09:03:00,54.5,41.8,29.71,South,180,1.1,-999.0,62,-99.99,,,0.00,Acu-Link.com,2013-05-15 13:03:00,
2013-05-15 09:18:00,54.5,42.2,29.71,SW,225,2.7,-999.0,63,-99.99,,,0.00,Acu-Link.com,2013-05-15 13:18:00,
2013-05-15 09:33:00,56.7,43.8,29.70,SE,135,0.0,-999.0,62,-99.99,,,0.00,Acu-Link.com,2013-05-15 13:33:00,
2013-05-15 09:48:00,58.5,42.4,29.70,ESE,112,2.7,-999.0,55,-99.99,,,0.00,Acu-Link.com,2013-05-15 13:48:00,
2013-05-15 10:03:00,57.7,41.2,29.69,NNE,22,1.7,-999.0,54,-99.99,,,0.00,Acu-Link.com,2013-05-15 14:03:00,
2013-05-15 10:18:00,60.6,43.4,29.69,South,180,4.7,-999.0,53,-99.99,,,0.00,Acu-Link.com,2013-05-15 14:18:00,
2013-05-15 10:34:00,58.8,41.7,29.69,SSE,157,4.2,-999.0,53,-99.99,,,0.00,Acu-Link.com,2013-05-15 14:34:00,
2013-05-15 10:49:00,61.3,43.5,29.68,West,270,6.3,-999.0,52,-99.99,,,0.00,Acu-Link.com,2013-05-15 14:49:00,
2013-05-15 11:04:00,60.4,41.7,29.68,WSW,247,2.2,-999.0,50,-99.99,,,0.00,Acu-Link.com,2013-05-15 15:04:00,
2013-05-15 11:19:00,59.4,40.2,29.68,NE,45,2.7,-999.0,49,-99.99,,,0.00,Acu-Link.com,2013-05-15 15:19:00,
2013-05-15 11:34:00,59.0,39.3,29.67,WSW,247,2.7,-999.0,48,-99.99,,,0.00,Acu-Link.com,2013-05-15 15:34:00,
2013-05-15 11:49:00,58.6,41.0,29.67,ENE,67,2.2,-999.0,52,-99.99,,,0.00,Acu-Link.com,2013-05-15 15:49:00,
2013-05-15 12:04:00,59.0,42.9,29.66,NW,315,4.7,-999.0,55,-99.99,,,0.00,Acu-Link.com,2013-05-15 16:04:00,
2013-05-15 12:35:00,60.3,42.6,29.65,SSW,202,7.8,-999.0,52,-99.99,,,0.00,Acu-Link.com,2013-05-15 16:35:00,
2013-05-15 12:50:00,60.6,41.9,29.64,SSE,157,5.3,-999.0,50,-99.99,,,0.00,Acu-Link.com,2013-05-15 16:50:00,
2013-05-15 13:06:00,60.1,43.4,29.62,NNE,22,2.2,-999.0,54,-99.99,,,0.00,Acu-Link.com,2013-05-15 17:06:00,
2013-05-15 13:36:00,61.5,44.2,29.57,SE,135,3.7,-999.0,53,-99.99,,,0.00,Acu-Link.com,2013-05-15 17:36:00,
2013-05-15 13:51:00,61.7,42.9,29.58,West,270,3.2,-999.0,50,-99.99,,,0.00,Acu-Link.com,2013-05-15 17:51:00,
2013-05-15 14:07:00,60.1,42.9,29.58,West,270,4.2,-999.0,53,-99.99,,,0.00,Acu-Link.com,2013-05-15 18:07:00,
2013-05-15 14:22:00,58.3,42.2,29.59,SW,225,4.2,-999.0,55,-99.99,,,0.00,Acu-Link.com,2013-05-15 18:22:00,
2013-05-15 14:37:00,55.8,46.2,29.59,WSW,247,0.0,-999.0,70,-99.99,,,0.00,Acu-Link.com,2013-05-15 18:37:00,
2013-05-15 14:52:00,53.8,50.9,29.55,SSW,202,0.0,-999.0,90,-99.99,,,0.01,Acu-Link.com,2013-05-15 18:52:00,
2013-05-15 15:08:00,53.6,51.9,29.54,NW,315,2.7,-999.0,94,-99.99,,,0.02,Acu-Link.com,2013-05-15 19:08:00,
2013-05-15 15:38:00,53.2,52.6,29.52,SE,135,0.0,-999.0,98,-99.99,,,0.08,Acu-Link.com,2013-05-15 19:38:00,
2013-05-15 15:53:00,52.7,52.2,29.50,East,90,2.7,-999.0,98,-99.99,,,0.10,Acu-Link.com,2013-05-15 19:53:00,
2013-05-15 16:24:00,53.4,52.8,29.47,NE,45,1.7,-999.0,98,-99.99,,,0.12,Acu-Link.com,2013-05-15 20:24:00,
2013-05-15 16:39:00,53.1,52.5,29.46,SSE,157,2.2,-999.0,98,-99.99,,,0.15,Acu-Link.com,2013-05-15 20:39:00,
2013-05-15 16:54:00,53.4,52.8,29.45,SSE,157,3.2,-999.0,98,-99.99,,,0.15,Acu-Link.com,2013-05-15 20:54:00,
2013-05-15 17:09:00,53.6,53.0,29.44,ESE,112,4.2,-999.0,98,-99.99,,,0.15,Acu-Link.com,2013-05-15 21:09:00,
2013-05-15 17:25:00,53.6,53.0,29.44,SE,135,1.7,-999.0,98,-99.99,,,0.15,Acu-Link.com,2013-05-15 21:25:00,
2013-05-15 17:40:00,53.8,53.2,29.42,NE,45,2.2,-999.0,98,-99.99,,,0.15,Acu-Link.com,2013-05-15 21:40:00,
2013-05-15 18:10:00,54.1,53.5,29.44,North,0,1.1,-999.0,98,-99.99,,,0.16,Acu-Link.com,2013-05-15 22:10:00,
2013-05-15 18:41:00,54.9,54.3,29.42,North,0,2.2,-999.0,98,-99.99,,,0.16,Acu-Link.com,2013-05-15 22:41:00,
2013-05-15 18:56:00,55.2,54.6,29.42,South,180,0.0,-999.0,98,-99.99,,,0.16,Acu-Link.com,2013-05-15 22:56:00,
2013-05-15 19:12:00,55.2,54.6,29.42,SSW,202,0.0,-999.0,98,-99.99,,,0.16,Acu-Link.com,2013-05-15 23:12:00,
2013-05-15 19:27:00,54.9,54.3,29.42,NE,45,1.1,-999.0,98,-99.99,,,0.16,Acu-Link.com,2013-05-15 23:27:00,
2013-05-15 19:42:00,54.0,53.4,29.40,East,90,0.0,-999.0,98,-99.99,,,0.16,Acu-Link.com,2013-05-15 23:42:00,
2013-05-15 19:58:00,53.6,53.0,29.40,NNW,337,0.0,-999.0,98,-99.99,,,0.16,Acu-Link.com,2013-05-15 23:58:00,
2013-05-15 20:13:00,53.1,52.5,29.40,NNE,22,0.0,-999.0,98,-99.99,,,0.16,Acu-Link.com,2013-05-16 00:13:00,
2013-05-15 20:28:00,52.3,51.8,29.39,North,0,0.0,-999.0,98,-99.99,,,0.16,Acu-Link.com,2013-05-16 00:28:00,
2013-05-15 20:43:00,52.2,51.7,29.40,ENE,67,0.0,-999.0,98,-99.99,,,0.16,Acu-Link.com,2013-05-16 00:43:00,
2013-05-15 20:58:00,52.0,51.5,29.41,NNE,22,0.0,-999.0,98,-99.99,,,0.16,Acu-Link.com,2013-05-16 00:58:00,
2013-05-15 21:14:00,51.3,50.8,29.41,NNW,337,0.0,-999.0,98,-99.99,,,0.16,Acu-Link.com,2013-05-16 01:14:00,
2013-05-15 21:44:00,51.3,50.8,29.41,West,270,0.0,-999.0,98,-99.99,,,0.16,Acu-Link.com,2013-05-16 01:44:00,
2013-05-15 22:15:00,52.0,51.5,29.43,West,270,0.0,-999.0,98,-99.99,,,0.16,Acu-Link.com,2013-05-16 02:15:00,
2013-05-15 22:30:00,51.6,51.1,29.43,East,90,0.0,-999.0,98,-99.99,,,0.16,Acu-Link.com,2013-05-16 02:30:00,
2013-05-15 22:46:00,51.1,50.6,29.44,West,270,0.0,-999.0,98,-99.99,,,0.16,Acu-Link.com,2013-05-16 02:46:00,
2013-05-15 23:01:00,50.4,49.9,29.44,NNE,22,0.0,-999.0,98,-99.99,,,0.16,Acu-Link.com,2013-05-16 03:01:00,
2013-05-15 23:16:00,50.4,49.9,29.43,NNE,22,0.0,-999.0,98,-99.99,,,0.16,Acu-Link.com,2013-05-16 03:16:00,
2013-05-15 23:31:00,49.8,49.3,29.43,West,270,0.0,-999.0,98,-99.99,,,0.16,Acu-Link.com,2013-05-16 03:31:00,
2013-05-15 23:47:00,49.5,49.0,29.42,NE,45,0.0,-999.0,98,-99.99,,,0.16,Acu-Link.com,2013-05-16 03:47:00,